Location: Unspecified
(34.4500°N, 0.0000°E)
Time: 09:30:46
(UTC+00:00)

X-37B - Visible Passes

Search period start: 04 March 2021 00:00
Search period end: 14 March 2021 00:00
Orbit: 383 x 391 km, 45.0° (Epoch: 27 February)

Date Brightness Start Highest point End Pass type
(mag) Time Alt. Az. Time Alt. Az. Time Alt. Az.
04 Mar 1.4 04:43:33 48° ESE 04:43:33 48° ESE 04:45:55 10° ESE visible
05 Mar 2.1 05:20:41 21° SW 05:20:51 21° SW 05:23:17 10° S visible
08 Mar 2.9 18:57:48 10° SSE 18:58:49 12° SE 18:58:49 12° SE visible
09 Mar 1.5 19:33:58 10° SW 19:36:15 39° SSW 19:36:15 39° SSW visible
10 Mar 1.9 18:36:08 10° SSW 18:38:50 25° SE 18:41:13 12° E visible
10 Mar 3.4 20:12:22 10° W 20:13:32 19° W 20:13:32 19° W visible
11 Mar 0.8 19:13:45 10° WSW 19:16:57 70° NNW 19:18:23 29° NE visible
12 Mar 2.7 19:52:45 10° WNW 19:55:23 23° NNW 19:55:23 23° NNW visible
13 Mar 1.9 18:53:53 10° W 18:56:53 36° NNW 18:59:54 10° NE visible
